Wind_Speed
11 10 10 8 11 13 12 11 12 12 12 11 9 9 9 9 10 10 10 10 11 12 12 13 13 12 12 11 10 10 9 8 8 7 7 6 5 4 3 2 1 1 1 1 1 1 1 1 1
10 9 9 9 11 14 12 12 13 13 13 11 10 9 10 10 11 11 12 12 12 12 13 14 14 14 14 12 11 11 10 9 8 8 7 6 5 4 3 3 2 1 1 1 1 1 1 2 2
9 7 9 9 13 12 11 13 13 13 13 12 11 10 11 11 12 12 13 13 12 13 14 14 14 15 15 14 12 11 10 10 9 8 7 7 6 5 4 3 2 2 2 2 2 2 2 2 2
7 7 8 11 11 8 11 13 13 13 13 13 13 12 12 12 13 13 13 12 12 13 14 14 15 15 15 14 13 12 12 11 10 9 8 7 6 5 4 3 3 3 3 3 2 2 3 3 3
6 6 8 9 7 7 13 14 14 14 14 14 15 15 13 13 13 13 14 13 12 13 14 15 16 16 16 16 15 14 13 12 11 10 9 8 6 5 4 4 3 3 3 3 2 3 3 4 4
6 8 9 8 7 8 13 14 15 14 14 15 15 16 13 14 13 13 14 14 12 12 14 16 17 17 17 16 16 15 15 13 12 11 10 8 7 6 5 5 4 4 3 3 3 3 3 4 4
5 7 7 6 7 11 12 14 15 16 16 16 17 18 15 13 13 14 14 14 13 12 14 16 17 17 17 18 17 16 15 14 12 11 10 8 7 6 6 5 5 4 3 3 3 3 3 4 4
4 4 4 3 5 10 12 13 14 15 17 17 17 18 17 17 15 15 15 15 13 12 13 15 16 17 17 18 17 17 16 14 13 12 10 9 8 7 6 5 4 4 4 4 3 3 4 4 4
4 3 4 5 7 10 12 13 15 16 16 17 16 17 18 18 17 16 16 15 12 12 14 15 16 17 18 18 18 17 16 15 13 12 10 9 9 8 6 5 5 5 4 4 4 4 4 4 4
2 2 3 4 8 10 11 13 14 16 17 19 19 16 18 19 18 17 16 15 12 11 12 12 14 16 17 18 18 18 17 15 15 13 11 10 9 7 6 5 5 5 5 4 4 4 4 4 5
2 1 3 6 9 10 11 12 14 15 18 20 20 20 19 19 18 17 16 14 13 13 12 12 14 15 16 17 18 17 16 16 15 14 12 10 8 6 5 5 5 5 4 4 4 3 3 4 4
5 4 5 7 9 11 12 12 13 15 18 20 20 21 20 20 19 17 16 16 14 14 13 14 15 15 16 17 18 16 16 15 14 13 10 8 7 6 5 5 4 4 3 3 3 2 3 3 4
7 6 7 9 10 11 13 13 14 14 16 20 20 20 21 20 20 18 15 15 14 15 14 13 14 14 15 17 17 16 16 14 13 12 10 8 7 6 4 4 4 3 3 2 2 2 2 2 3
6 7 9 9 9 11 12 13 16 16 16 20 20 20 21 21 20 18 16 14 14 13 13 13 14 13 14 15 15 15 14 13 12 11 9 8 8 6 4 4 3 3 2 2 1 1 1 2 2
5 7 8 8 7 11 13 15 18 17 18 20 20 20 20 20 20 17 15 14 13 12 11 12 13 13 13 14 14 15 14 13 12 11 10 9 8 7 5 4 4 3 2 1 1 1 1 1 1
5 7 10 11 7 10 13 15 19 17 18 20 20 20 20 19 19 16 15 14 12 11 10 12 11 12 12 13 13 14 14 13 12 11 10 9 8 7 6 5 4 3 2 1 0 1 1 1 1
5 9 11 12 9 11 13 15 19 16 18 21 20 19 18 17 17 15 13 12 10 9 9 9 10 11 11 11 13 14 15 14 12 12 10 9 8 7 7 6 5 4 3 1 0 1 2 2 2
9 9 11 12 9 12 14 14 17 17 18 20 21 20 18 17 16 14 12 11 9 8 7 8 9 10 11 11 12 12 13 13 12 12 11 9 8 8 7 6 5 4 3 2 1 2 2 2 3
12 12 13 13 11 13 15 14 15 17 17 19 20 20 19 17 15 13 10 8 7 6 5 7 8 9 10 11 11 11 11 12 12 12 11 10 9 9 9 8 6 5 4 3 2 2 2 2 3
15 16 14 13 13 14 14 14 16 17 17 18 19 19 19 17 13 11 10 7 6 5 5 5 7 8 9 11 11 11 11 11 11 11 11 10 9 9 10 9 7 6 5 4 2 1 1 1 2
16 15 14 14 14 14 15 15 16 17 16 16 17 18 17 15 12 10 8 7 6 5 4 4 6 8 9 10 10 10 11 11 11 11 11 10 10 10 10 9 8 7 6 5 3 2 0 0 0
15 13 14 15 15 16 16 17 17 16 15 16 15 16 15 13 11 10 8 7 6 6 5 4 5 8 9 9 10 10 11 11 11 12 12 11 10 10 10 10 9 8 7 6 5 4 3 2 2
15 14 15 15 16 15 15 16 15 15 15 15 17 16 15 13 12 10 8 7 6 6 5 4 5 7 8 9 10 10 11 12 12 12 12 11 11 11 11 11 10 9 8 7 7 6 5 4 4
15 15 16 15 14 15 15 16 13 14 16 16 16 16 15 13 12 11 10 8 7 6 5 4 4 6 8 9 10 10 11 11 12 13 13 12 11 11 12 12 11 10 10 9 9 8 7 7 7
15 15 14 13 15 16 14 12 10 12 15 16 16 15 14 12 12 10 10 8 6 6 5 5 5 6 7 9 10 11 11 12 13 13 13 13 12 12 12 13 12 11 11 11 11 10 10 10 10
15 15 15 15 17 18 15 13 9 11 12 14 16 15 13 12 11 10 9 8 6 6 5 5 5 7 9 10 11 11 12 13 13 14 13 13 14 14 14 14 14 13 12 13 13 13 13 13 13
15 15 14 16 17 18 17 14 11 12 10 13 15 15 13 12 11 10 10 8 7 6 6 6 6 7 9 11 12 12 12 13 14 14 14 13 14 14 15 15 15 15 15 15 15 15 16 16 16
16 15 15 16 17 17 17 18 17 10 8 11 14 15 13 12 11 9 9 8 7 7 6 6 6 7 8 10 12 13 13 13 14 14 14 14 14 15 15 16 16 17 17 17 17 18 18 19 19
14 16 18 17 17 17 18 20 18 12 8 12 15 15 14 13 10 9 9 8 8 7 7 6 6 6 7 9 11 12 13 14 14 14 15 15 16 16 16 17 17 18 19 19 19 20 20 21 21
15 16 16 19 19 18 17 19 19 14 11 11 14 15 15 14 12 11 9 9 8 8 7 6 6 6 5 6 8 11 13 14 15 15 15 17 17 18 18 18 19 19 20 21 21 22 22 23 24
Wind_Direction
43 44 47 45 46 44 34 357 343 342 342 339 331 312 301 299 292 284 282 280 271 260 253 245 238 230 223 219 217 215 218 221 225 228 226 220 211 208 205 197 199 208 198 217 224 221 201 197 197
45 42 49 39 33 35 12 344 340 345 344 341 333 319 309 304 294 289 284 283 275 266 257 248 242 235 231 225 223 220 222 224 229 232 232 229 224 220 218 217 228 237 241 242 240 228 220 217 222
48 42 54 38 37 27 345 337 343 345 348 344 335 325 319 311 302 295 287 283 277 267 258 248 242 238 234 228 225 223 224 227 232 234 236 235 232 229 229 230 239 243 247 252 251 244 236 233 232
48 53 58 52 47 6 331 336 342 346 346 345 339 333 326 317 308 300 292 286 278 267 259 250 242 238 235 231 229 226 227 230 234 237 238 237 236 235 234 237 245 251 257 258 253 251 245 237 234
49 56 50 52 48 349 329 338 343 345 344 342 338 332 326 319 310 303 295 289 282 272 259 250 244 238 235 233 232 229 229 232 236 240 238 240 238 235 237 242 247 258 262 259 255 252 250 241 236
44 48 50 31 16 333 329 337 337 337 336 335 333 326 327 319 312 305 299 292 283 272 259 247 241 238 235 232 231 231 230 231 236 239 239 240 238 239 245 251 252 261 265 265 262 254 252 247 243
35 58 63 27 349 321 328 331 331 332 330 330 330 325 327 324 316 309 301 298 290 275 258 244 238 237 235 232 230 229 228 230 234 237 239 239 240 244 251 259 261 265 265 265 263 255 246 243 244
56 75 86 52 327 316 317 321 323 326 323 324 325 322 324 324 320 314 305 300 295 274 256 243 240 238 235 232 229 224 226 229 233 235 238 241 242 246 252 259 261 262 266 263 261 257 250 248 248
62 78 62 27 317 306 309 317 321 324 320 319 316 321 326 326 320 314 309 303 295 272 259 251 244 238 234 232 229 225 226 228 230 233 238 240 241 245 250 255 262 265 267 265 263 261 256 253 253
64 75 34 321 294 297 306 317 325 325 319 316 318 325 329 326 320 312 306 301 293 276 262 255 249 240 234 231 229 228 228 229 229 229 234 236 240 240 248 258 262 263 262 264 264 263 260 258 260
328 315 295 289 293 302 313 322 324 322 316 319 323 325 326 325 320 313 305 299 294 285 275 269 252 239 232 228 227 228 229 230 229 229 231 235 238 238 246 258 261 261 259 259 260 262 264 266 269
306 292 286 292 300 310 317 322 325 322 320 323 322 321 323 323 321 313 304 298 294 288 279 265 248 238 233 227 225 226 226 225 226 231 232 234 234 233 243 256 263 264 262 264 264 264 265 268 269
289 299 302 299 303 310 317 321 313 311 320 323 321 319 323 322 318 313 305 300 295 287 279 258 247 242 236 230 225 223 221 221 225 225 229 231 230 230 235 241 244 255 259 268 278 274 272 273 274
279 282 283 289 300 313 316 311 305 311 327 326 323 319 321 320 318 311 305 302 297 288 275 262 251 243 236 230 222 219 220 222 224 228 224 222 223 223 225 227 232 244 252 260 283 303 297 286 288
288 291 290 294 308 308 311 311 313 324 328 324 322 322 322 321 318 310 306 302 299 289 273 259 248 238 230 225 221 221 217 218 223 225 220 217 219 223 220 218 219 227 235 252 301 338 333 324 322
305 309 306 308 305 303 314 312 311 321 325 321 322 323 323 324 325 320 310 305 298 288 274 261 244 239 231 223 221 215 216 219 217 219 217 215 214 215 207 208 210 215 221 232 3 31 31 27 23
303 305 304 298 296 299 303 301 308 323 324 321 321 322 327 328 327 321 313 306 296 288 276 255 244 241 229 222 216 214 214 217 217 213 212 210 209 205 198 202 205 206 204 195 92 52 45 41 44
285 292 287 280 278 289 296 302 309 316 319 321 322 323 328 329 330 322 316 310 301 288 271 257 243 230 222 220 215 214 211 210 210 207 209 210 210 207 202 203 202 199 187 175 134 71 51 53 62
270 264 263 272 278 282 290 297 300 308 314 319 322 325 326 327 328 326 322 317 312 294 280 257 242 231 219 212 214 214 211 208 208 207 208 209 210 210 204 201 199 194 186 175 140 92 65 61 65
262 259 252 258 267 276 285 292 295 308 317 319 323 325 325 325 326 331 326 319 319 307 291 264 237 228 216 212 213 216 215 211 210 211 211 209 210 206 201 200 199 194 191 186 168 129 82 68 63
253 255 255 259 265 273 281 285 295 304 311 321 326 328 327 330 330 332 326 323 328 327 309 284 237 225 220 217 214 215 209 208 211 212 212 213 211 206 201 200 202 200 197 197 198 197 203 309 338
255 255 257 258 265 269 275 286 291 302 305 318 324 332 336 332 332 332 324 319 321 325 323 295 253 229 225 219 214 213 210 210 210 210 212 212 212 207 206 204 208 208 207 213 224 239 252 266 275
248 247 254 258 262 263 267 276 284 304 312 317 324 333 335 330 333 336 326 318 318 318 318 297 253 230 223 215 214 216 212 214 213 211 213 215 215 212 210 211 213 216 220 226 234 244 254 263 267
247 246 249 254 261 267 265 267 275 298 310 315 319 325 328 327 330 336 333 318 309 312 305 292 255 230 216 212 211 211 212 213 212 215 219 218 216 215 215 216 219 223 230 235 239 248 254 259 264
247 247 247 260 271 276 271 263 261 293 303 308 311 314 320 324 326 330 332 327 310 303 303 288 259 234 220 214 215 217 217 215 213 215 219 220 219 220 221 221 224 230 237 239 243 251 257 261 264
237 241 243 252 271 285 290 272 244 274 296 301 303 306 314 320 322 325 332 332 319 311 305 287 270 245 233 224 223 223 222 220 218 218 222 224 224 228 230 228 230 236 243 246 248 254 259 263 266
232 238 243 257 270 286 289 286 273 270 290 300 305 307 309 315 319 324 327 329 323 317 308 294 279 259 244 234 230 227 223 221 222 221 224 228 231 233 235 234 237 242 246 250 253 257 260 263 266
232 227 239 246 260 267 274 276 271 263 283 295 306 308 306 309 314 318 320 325 325 318 313 305 287 267 248 240 233 229 226 226 228 228 231 233 235 237 238 238 242 247 251 254 257 259 262 265 266
244 231 228 236 246 259 268 279 282 279 266 292 303 305 303 303 306 312 315 319 323 319 314 312 300 282 256 242 233 228 228 230 229 230 232 236 238 241 242 242 247 250 254 257 259 261 263 266 267
243 245 238 238 240 245 264 282 290 292 278 282 296 299 298 296 298 304 310 314 316 314 312 309 309 300 275 242 233 229 229 231 231 235 239 242 244 245 246 248 251 254 257 260 263 264 265 267 269
Height
5884 5883 5882 5881 5879 5880 5881 5882 5880 5878 5877 5876 5875 5874 5873 5873 5872 5873 5871 5870 5871 5870 5871 5872 5873 5874 5876 5877 5878 5879 5880 5881 5882 5882 5882 5882 5882 5882 5882 5883 5882 5882 5882 5883 5883 5883 5882 5882 5882
5885 5884 5883 5881 5879 5880 5883 5882 5880 5878 5877 5876 5875 5874 5873 5872 5871 5870 5869 5869 5870 5869 5870 5871 5872 5873 5875 5876 5878 5879 5880 5880 5881 5882 5882 5882 5882 5882 5882 5882 5882 5882 5882 5882 5883 5883 5882 5882 5882
5885 5885 5884 5882 5881 5883 5885 5883 5880 5878 5877 5876 5875 5874 5873 5871 5870 5869 5869 5868 5868 5868 5869 5869 5871 5872 5873 5875 5877 5878 5879 5880 5881 5881 5882 5882 5882 5882 5882 5882 5882 5882 5882 5882 5882 5882 5882 5882 5882
5886 5886 5884 5884 5884 5886 5886 5883 5880 5879 5877 5875 5874 5873 5871 5871 5869 5868 5867 5866 5867 5867 5867 5868 5869 5870 5872 5874 5875 5877 5878 5879 5880 5881 5881 5881 5881 5882 5882 5882 5882 5882 5882 5882 5882 5882 5882 5882 5882
5886 5885 5884 5884 5885 5887 5886 5883 5881 5879 5877 5875 5874 5872 5871 5869 5868 5867 5865 5865 5865 5865 5865 5866 5867 5868 5870 5872 5874 5876 5877 5878 5879 5880 5880 5881 5881 5881 5881 5881 5881 5881 5882 5882 5882 5882 5882 5882 5882
5887 5886 5886 5886 5887 5888 5886 5883 5881 5879 5877 5875 5873 5871 5869 5867 5866 5865 5863 5862 5863 5863 5863 5862 5864 5866 5868 5870 5872 5874 5875 5877 5878 5879 5879 5880 5880 5881 5881 5881 5881 5881 5881 5881 5881 5881 5882 5882 5881
5887 5886 5886 5888 5889 5889 5887 5883 5881 5879 5876 5875 5872 5869 5867 5865 5864 5863 5861 5860 5860 5860 5860 5859 5861 5864 5866 5868 5870 5872 5874 5875 5877 5878 5878 5879 5880 5880 5880 5880 5881 5881 5881 5881 5881 5881 5881 5881 5881
5887 5887 5886 5888 5890 5889 5886 5884 5881 5879 5876 5874 5871 5868 5866 5864 5863 5861 5859 5858 5858 5857 5857 5857 5859 5861 5863 5865 5868 5870 5872 5873 5875 5876 5877 5878 5879 5879 5880 5880 5880 5880 5880 5880 5880 5881 5881 5880 5881
5887 5888 5887 5888 5890 5889 5886 5883 5881 5878 5875 5871 5869 5866 5864 5862 5861 5860 5857 5855 5855 5854 5854 5856 5857 5859 5861 5863 5865 5867 5870 5871 5873 5875 5876 5877 5878 5878 5879 5879 5879 5880 5880 5880 5880 5880 5880 5880 5880
5887 5887 5887 5888 5889 5887 5885 5883 5880 5877 5873 5869 5866 5864 5863 5861 5860 5858 5856 5853 5853 5851 5850 5852 5854 5856 5858 5861 5863 5866 5868 5870 5871 5873 5875 5876 5877 5877 5878 5878 5878 5879 5879 5879 5879 5879 5880 5880 5880
5886 5886 5886 5887 5887 5885 5883 5881 5879 5876 5873 5869 5866 5864 5862 5860 5857 5855 5853 5851 5850 5849 5849 5850 5852 5854 5856 5859 5861 5863 5866 5868 5870 5872 5873 5875 5876 5876 5877 5877 5877 5878 5878 5879 5879 5879 5879 5879 5879
5885 5885 5885 5885 5885 5883 5881 5880 5878 5875 5872 5868 5865 5863 5860 5858 5855 5853 5851 5849 5848 5848 5848 5849 5849 5851 5854 5856 5858 5861 5864 5866 5869 5870 5872 5874 5875 5876 5876 5877 5877 5877 5878 5878 5878 5878 5878 5879 5879
5883 5883 5883 5883 5882 5881 5880 5878 5876 5872 5871 5868 5864 5861 5858 5855 5852 5849 5847 5846 5845 5845 5845 5845 5846 5849 5852 5854 5856 5859 5862 5865 5867 5869 5871 5872 5874 5874 5875 5876 5876 5877 5877 5878 5878 5878 5878 5878 5878
5881 5881 5881 5880 5880 5879 5879 5876 5873 5868 5867 5866 5863 5859 5856 5852 5849 5846 5844 5844 5843 5842 5842 5843 5845 5846 5849 5852 5854 5857 5860 5863 5865 5867 5869 5871 5872 5873 5874 5875 5876 5877 5877 5877 5878 5878 5878 5878 5878
5879 5879 5878 5877 5878 5878 5877 5875 5871 5868 5865 5864 5861 5857 5853 5850 5846 5842 5841 5841 5840 5840 5840 5840 5842 5845 5847 5850 5853 5855 5859 5862 5864 5866 5868 5869 5871 5872 5873 5875 5876 5876 5877 5877 5877 5878 5878 5878 5878
5877 5877 5876 5876 5875 5877 5877 5874 5869 5866 5865 5862 5859 5855 5852 5848 5844 5841 5839 5839 5838 5838 5838 5839 5840 5843 5846 5848 5851 5854 5857 5859 5862 5864 5866 5868 5870 5871 5873 5874 5875 5876 5877 5877 5877 5878 5878 5878 5877
5874 5875 5875 5875 5875 5876 5875 5872 5868 5865 5863 5860 5857 5853 5849 5847 5844 5841 5839 5837 5837 5837 5837 5837 5839 5842 5844 5846 5849 5852 5855 5858 5861 5863 5865 5867 5869 5870 5872 5873 5874 5875 5876 5877 5877 5878 5878 5878 5878
5873 5874 5874 5874 5873 5875 5873 5871 5867 5865 5862 5859 5855 5852 5848 5846 5843 5840 5838 5836 5836 5836 5835 5837 5838 5840 5842 5845 5848 5851 5854 5856 5859 5862 5864 5866 5867 5869 5871 5873 5874 5875 5876 5877 5877 5878 5878 5878 5878
5871 5873 5873 5873 5872 5872 5871 5869 5866 5862 5860 5857 5854 5851 5848 5845 5842 5840 5837 5836 5836 5835 5835 5836 5837 5839 5841 5844 5847 5850 5852 5855 5858 5861 5863 5864 5866 5868 5870 5872 5873 5875 5876 5877 5877 5877 5878 5878 5878
5869 5869 5870 5871 5870 5870 5868 5867 5864 5861 5858 5855 5852 5849 5847 5844 5842 5839 5838 5836 5836 5835 5835 5835 5836 5838 5840 5842 5845 5848 5851 5853 5856 5859 5861 5863 5865 5867 5869 5871 5873 5874 5875 5876 5877 5877 5878 5878 5878
5865 5865 5866 5867 5867 5866 5865 5863 5860 5858 5855 5852 5851 5848 5845 5843 5841 5839 5838 5836 5836 5835 5835 5834 5835 5837 5839 5841 5843 5846 5849 5851 5855 5857 5860 5862 5864 5866 5868 5870 5872 5873 5875 5875 5876 5877 5877 5878 5878
5861 5862 5863 5863 5864 5863 5863 5859 5857 5855 5851 5849 5848 5846 5844 5843 5841 5839 5838 5836 5836 5835 5834 5834 5835 5837 5838 5840 5842 5845 5847 5850 5853 5855 5858 5861 5863 5865 5867 5869 5871 5872 5873 5874 5875 5876 5877 5877 5878
5857 5859 5859 5859 5860 5859 5859 5857 5853 5852 5850 5848 5846 5845 5844 5842 5840 5839 5837 5836 5835 5835 5834 5834 5835 5836 5837 5839 5841 5843 5846 5849 5851 5854 5856 5859 5861 5863 5865 5867 5869 5871 5872 5873 5874 5875 5876 5876 5877
5853 5855 5855 5855 5856 5856 5855 5853 5851 5850 5849 5848 5847 5845 5843 5842 5840 5839 5837 5836 5835 5834 5834 5834 5834 5835 5836 5838 5840 5842 5845 5847 5850 5852 5855 5857 5859 5861 5864 5865 5867 5869 5870 5872 5873 5873 5874 5875 5875
5850 5851 5853 5853 5853 5852 5850 5848 5849 5849 5849 5848 5846 5845 5843 5842 5840 5838 5837 5835 5834 5834 5834 5834 5834 5834 5835 5837 5839 5841 5843 5845 5848 5850 5853 5855 5858 5860 5862 5864 5865 5867 5868 5869 5871 5872 5872 5873 5874
5846 5848 5850 5851 5850 5848 5845 5844 5845 5845 5846 5846 5845 5844 5843 5841 5839 5838 5836 5835 5834 5833 5833 5833 5833 5833 5834 5836 5838 5840 5842 5843 5846 5848 5851 5853 5855 5857 5859 5861 5863 5865 5866 5867 5868 5869 5870 5870 5871
5842 5845 5848 5849 5848 5847 5845 5843 5842 5841 5843 5844 5843 5842 5841 5840 5838 5837 5836 5835 5833 5833 5832 5832 5832 5832 5833 5834 5836 5838 5840 5842 5844 5846 5849 5851 5853 5855 5857 5859 5860 5862 5863 5864 5865 5866 5867 5867 5868
5840 5842 5844 5845 5845 5845 5844 5841 5837 5837 5839 5841 5841 5840 5840 5839 5837 5836 5835 5834 5833 5832 5831 5831 5830 5830 5831 5832 5834 5835 5838 5840 5842 5844 5846 5848 5850 5852 5854 5855 5857 5858 5859 5860 5861 5862 5863 5864 5864
5837 5838 5839 5841 5842 5842 5841 5840 5834 5835 5836 5838 5838 5838 5838 5837 5836 5836 5834 5833 5832 5832 5830 5830 5829 5829 5829 5830 5831 5833 5835 5837 5839 5841 5843 5845 5847 5849 5850 5852 5853 5854 5855 5856 5857 5858 5859 5859 5860
5834 5835 5836 5837 5838 5839 5838 5839 5834 5832 5832 5834 5836 5836 5836 5835 5835 5834 5833 5832 5831 5831 5830 5829 5828 5828 5828 5828 5829 5831 5833 5835 5836 5838 5840 5842 5844 5845 5847 5848 5849 5850 5851 5852 5852 5853 5854 5854 5854